{"data":{"norad_id":69082,"intl_designator":"2026-104K","name":"QIANFAN-136","alt_names":[],"object_type":"PAYLOAD","status":"ACTIVE","operator":null,"country":"PRC","launch_date":"2026-05-12","launch_site_code":"TAISC","launch_vehicle":null,"mission":null,"orbit_class":"UNKNOWN","rcs_meters":null,"size_class":null,"mass_kg":null,"dimensions":null,"purposes":[],"wikipedia_slug":null,"has_3d_model":false,"image_url":null,"decayed_at":null,"tle_current":{"epoch":"2026-05-25T04:33:29.604672Z","epoch_age_seconds":68711,"freshness":"FRESH","line1":"1 69082U 26104K   26145.18992598  .00000081  00000+0  31147-4 0  9995","line2":"2 69082  88.9865 344.2476 0003352 173.3594 186.7641 14.19910021  1828","mean_motion":14.19910021,"eccentricity":0.0003352,"inclination_deg":88.9865,"raan_deg":344.2476,"arg_perigee_deg":173.3594,"mean_anomaly_deg":186.7641,"bstar":3.1147e-5,"rev_number":182,"period_min":101.41487690789,"perigee_km":823.24239796572,"apogee_km":828.07182153689,"semimajor_km":7203.7941097513,"source":"CELESTRAK","updated_at":"2026-05-25T13:38:09.050913Z"}}}